星链-4662 (STARLINK-4662 )

导读 | 星芒AI

STARLINK-4662 是 SpaceX Starlink 卫星互联网项目中的一颗低轨卫星,属于第二批“批轨”部署任务的一部分。该卫星于2022年发射,运行在约550公里高度的近地轨道,旨在为全球用户提供高速、低延迟的互联网服务。Starlink 项目通过大规模部署卫星,构建覆盖全球的宽带网络,特别服务于偏远和网络基础设施薄弱的地区。STARLINK-4662 采用先进通信技术,支持Ka/Ku波段通信,并具备自动避撞功能,以确保太空安全。

基本信息
目录编号:
53738
目录名称:
STARLINK-4662
国际标识:
2022-107AQ
轨道中心:
EARTH
卫星名称:
星链-4662
卫星全名:
星链-4662 (STARLINK-4662 )
卫星状态:
在轨 (已飞行1157 天)
发射日期:
2022-09-05 UTC
国别 :
美国 (US)
星等 :
--
轨道信息
数据来源 国际轨道数据 AOE轨道数据
星历时间 2025-11-05T03:22:49+0800
6小时前
查看轨道信息
2025-11-01T09:00:00+0800
4天前
查看轨道信息
半长轴 6917.879km 6917.839km
偏心率 0.0001264 0.0001074
轨道倾角 53.216° 53.211°
近地点辐角 88.244° 99.408°
升交点赤经 104.512° 121.419°
平近点角 271.870° 314.256°
近地点 538.869km 538.961km
远地点 540.619km 540.447km
周期 95.438分钟 95.437分钟
每日圈数 15.088405 15.088538
详细信息
固有亮度:
5
最大亮度:
2.5
卫星平台:
Starlink v1.5
覆盖范围:
全球
运营商:
太空探索技术公司
运营商所在国:
美国
制造商(研发单位):
太空探索技术公司
制造商所在国:
美国
使用方式:
暂无
卫星简介
星链(Starlink)计划是由太空探索技术公司(SpaceX)提出的一个巨型低轨卫星互联网星座项目,计划在2019年至2024年间在太空搭建由约1.2万颗卫星组成的“星链”网络,其中1584颗将部署在地球上空550千米处的近地轨道,并从2020年开始工作。该卫星仍在工作。
2D轨道图
3D轨道图
轨道高度分析图
轨道倾角分析图
轨道综合分析图
查看轨道综合分析图